ONEWEB-0334 (49200 NORAD) Tracking and Keplerian Element Data

This shows tracking and keplerian element data for the satellite.

Feedback or suggestion? Click here.




ElementValue
Catalog49200
NameONEWEB-0334
Epoch Orbit360
Epoch Day287.91667824
Epoch Year2021
RAAN317.5311
Inclination87.2146
Eccentricity0.0020565
Argument of Perigee182.5319
Mean Anonmoly9.1021
Mean Motion14.94465421
Decay Rate-0.01303179
L11 49200U 21083Q 21287.91667824 -.01303179 00000-0 -13059+0 0 9995
L22 49200 87.2146 317.5311 0020565 182.5319 9.1021 14.94465421 3605

Live tracking and technical data element details for ONEWEB-0334 (NORAD 49200). ONEWEB-0334 can be tracked NOW for your location showing map with azimuth and elevation plus other details from your city location.

Track the satellite on the map from your city or location and see movement details for azimuth, elevation, latitude, longitude, range, height, and movement on the map or in text.







IsCatalogInMostPopularTable: catalog: 49200, numindb: 8
Update: records affected: 1



GetName: 49200 ONEWEB-0334

Hit Count: updated at: Tue, 19 Oct 2021 08:51:32 GMT